Location: Unspecified
(0.0000°N, 0.0000°E)
Time: 03:22:50
(UTC+00:00)

GOES 2 Rocket - Pass Details

Date: 27 January 2013
Orbit: 569 x 1675 km, 28.4° (Epoch: 23 May)

Event Time Altitude Azimuth Distance (km) Brightness Sun altitude
Rises 19:40:31 0° 296° (WNW) 2,878 7.2 -20.8°
Reaches altitude 10° 19:42:55 10° 293° (WNW) 1,906 6.2 -21.3°
Maximum altitude 19:47:08 66° 211° (SSW) 615 3.1 -22.3°
Enters shadow 19:48:10 47° 149° (SSE) 754 3.3 -22.6°
